Language: 


Des rapports , des résumés tant et plus, au choix de chacun....


Données statistiques de la station
Quotidien Rapport Décembre 16, 2017 Unités:  Métrique    Anglais   les deux
« Précédent Jour
Suivant Jour »
Quotidien Hebdomadaire Mensuel Annuel Actuel
  Haut: Bas: Moyen:
Température: -17.8 °C -17.8 °C -16.3 °C
Pt de rosée: -17.8 °C -17.8 °C -16 °C
Humidité: Humidity % 0 % 76 %
Vitesse du vent: 0 km/h 0 km/h 5.1 km/h
Rafales: 0 km/h - -
Vent:- - West
Pression: 0 hPa 0 hPa -
Précipitation: 83.82 mm    
Historical Graphs
 
 
Données statistiques pour Décembre 16, 2017
Heure Température Point de rosée Pression Vent Vitesse du vent Refales Humidité Pluie (taux horaire)
-17.8 °C -17.8 °C 0 hPa Calm     Humidity % 0 mm
00:01 -16 °C -16.1 °C 33992.1 hPa Calm   6.9 km/h 98 % 0 mm
00:06 -16 °C -16.1 °C 33992.1 hPa Calm   6.4 km/h 98 % 0 mm
00:08 -16 °C -16.1 °C 33992.1 hPa Calm   6.4 km/h 98 % 0 mm
00:10 -15.7 °C -15.6 °C 33992.1 hPa Calm   12.2 km/h 98 % 0 mm
00:14 -15.7 °C -15.6 °C 34029.3 hPa Calm   12.2 km/h 98 % 0 mm
00:17 -15.7 °C -15.6 °C 34029.3 hPa Calm   12.2 km/h 98 % 0 mm
00:22 -15.7 °C -15.6 °C 34029.3 hPa NNW 11.1 km/h 11.1 km/h 98 % 0 mm
00:24 -15.7 °C -15.6 °C 34029.3 hPa West 9.3 km/h 16.3 km/h 98 % 0 mm
00:28 -15.7 °C -15.6 °C 34029.3 hPa WNW 15.6 km/h 16.3 km/h 98 % 0 mm
00:29 -15.7 °C -15.6 °C 34029.3 hPa NW 10.3 km/h 16.3 km/h 98 % 0 mm
00:34 -15.7 °C -15.6 °C 34029.3 hPa NW 8.9 km/h 16.3 km/h 98 % 0 mm
00:35 -15.7 °C -15.6 °C 34029.3 hPa North 11.1 km/h 16.3 km/h 98 % 0 mm
00:40 -15.7 °C -15.6 °C 34029.3 hPa Calm   20.3 km/h 98 % 0 mm
00:45 -15.7 °C -15.6 °C 34029.3 hPa WNW 2.9 km/h 20.3 km/h 98 % 0 mm
00:47 -15.7 °C -15.6 °C 34029.3 hPa Calm   20.3 km/h 98 % 0 mm
00:52 -15.7 °C -15.6 °C 34029.3 hPa Calm   9.8 km/h 98 % 0 mm
00:57 -15.7 °C -15.6 °C 34029.3 hPa Calm   8.9 km/h 98 % 7.62 mm
01:01 -15.7 °C -15.6 °C 34029.3 hPa Calm   6.4 km/h 98 % 7.62 mm
01:02 -15.7 °C -15.6 °C 34029.3 hPa Calm   6.4 km/h 98 % 7.62 mm
01:07 -15.7 °C -15.6 °C 34029.3 hPa NNW 2.3 km/h 11.6 km/h 98 % 7.62 mm
01:09 -15.7 °C -15.6 °C 34029.3 hPa Calm   11.6 km/h 98 % 12.7 mm
01:13 -15.7 °C -15.6 °C 33992.1 hPa Calm   10.3 km/h 98 % 12.7 mm
01:19 -15.7 °C -15.6 °C 33992.1 hPa NW 4.2 km/h 10.3 km/h 98 % 12.7 mm
01:20 -15.7 °C -15.6 °C 33992.1 hPa Calm   10.3 km/h 98 % 12.7 mm
01:24 -15.7 °C -15.6 °C 33992.1 hPa Calm   4.2 km/h 98 % 12.7 mm
01:29 -15.7 °C -15.6 °C 34029.3 hPa West 9.8 km/h 9.8 km/h 98 % 12.7 mm
01:32 -15.7 °C -15.6 °C 34029.3 hPa NNW 7.6 km/h 9.8 km/h 98 % 12.7 mm
01:35 -15.7 °C -15.6 °C 34029.3 hPa Calm   9.8 km/h 98 % 12.7 mm
01:38 -15.7 °C -15.6 °C 34029.3 hPa Calm   9.8 km/h 98 % 12.7 mm
01:40 -15.7 °C -15.6 °C 34029.3 hPa Calm   9.8 km/h 98 % 12.7 mm
01:45 -15.7 °C -15.6 °C 34029.3 hPa Calm   2.3 km/h 98 % 12.7 mm
01:46 -15.7 °C -15.6 °C 34029.3 hPa Calm   2.3 km/h 98 % 12.7 mm
01:51 -15.7 °C -15.6 °C 34029.3 hPa Calm   2.3 km/h 98 % 12.7 mm
01:53 -15.7 °C -15.6 °C 34029.3 hPa Calm   2.3 km/h 98 % 12.7 mm
01:55 -15.7 °C -15.6 °C 34029.3 hPa Calm   2.3 km/h 98 % 20.32 mm
01:58 -15.7 °C -15.6 °C 34029.3 hPa Calm   2.3 km/h 98 % 12.7 mm
02:03 -15.7 °C -15.6 °C 34029.3 hPa Calm     98 % 12.7 mm
02:05 -15.7 °C -15.6 °C 34029.3 hPa Calm     98 % 12.7 mm
02:07 -15.7 °C -15.6 °C 34029.3 hPa Calm     98 % 12.7 mm
02:12 -15.7 °C -15.6 °C 34063.2 hPa Calm   2.3 km/h 98 % 7.62 mm
02:16 -15.7 °C -15.6 °C 34063.2 hPa Calm   2.9 km/h 98 % 7.62 mm
02:20 -15.7 °C -15.6 °C 34063.2 hPa Calm   11.6 km/h 98 % 7.62 mm
02:22 -15.7 °C -15.6 °C 34063.2 hPa Calm   11.6 km/h 98 % 7.62 mm
02:25 -15.7 °C -15.6 °C 34063.2 hPa Calm   11.6 km/h 98 % 7.62 mm
02:30 -15.7 °C -15.6 °C 34063.2 hPa Calm   2.3 km/h 98 % 7.62 mm
02:35 -15.7 °C -15.6 °C 34063.2 hPa Calm     98 % 7.62 mm
02:36 -15.7 °C -15.6 °C 34063.2 hPa Calm   5.6 km/h 98 % 7.62 mm
02:37 -15.7 °C -15.6 °C 34063.2 hPa Calm   5.6 km/h 98 % 7.62 mm
02:42 -15.7 °C -15.6 °C 34063.2 hPa Calm   5.6 km/h 98 % 7.62 mm
02:47 -15.7 °C -15.6 °C 34063.2 hPa Calm     98 % 7.62 mm
02:48 -15.7 °C -15.6 °C 34063.2 hPa Calm     98 % 7.62 mm
02:53 -15.7 °C -15.6 °C 34063.2 hPa Calm     98 % 7.62 mm
02:55 -15.7 °C -15.6 °C 34063.2 hPa Calm   5.6 km/h 98 % 0 mm
03:02 -17.8 °C -15.6 °C 0 hPa Calm   5.6 km/h 0 % 0 mm
03:03 -17.8 °C -15.6 °C 34063.2 hPa Calm   5.6 km/h 0 % 0 mm
03:08 -17.8 °C -15.6 °C 34063.2 hPa NNW 2.3 km/h 5.6 km/h 0 % 0 mm
03:10 -17.8 °C -15.6 °C 34063.2 hPa Calm   5.6 km/h 0 % 0 mm
03:15 -17.8 °C -15.6 °C 34097 hPa Calm   6.4 km/h 0 % 0 mm
03:16 -17.8 °C -15.6 °C 34097 hPa Calm   6.4 km/h 0 % 0 mm
03:21 -17.8 °C -15.6 °C 34097 hPa Calm     0 % 0 mm
03:25 -17.8 °C -15.6 °C 34097 hPa Calm   6.4 km/h 0 % 0 mm
03:30 -17.8 °C -15.6 °C 34097 hPa Calm   8.9 km/h 0 % 0 mm
03:31 -17.8 °C -15.6 °C 34097 hPa Calm   8.9 km/h 0 % 0 mm
03:36 -17.8 °C -15.6 °C 34097 hPa NNE 8 km/h 15 km/h 0 % 0 mm
03:38 -17.8 °C -15.6 °C 34097 hPa NE 3.4 km/h 15 km/h 0 % 0 mm
03:40 -17.8 °C -15.6 °C 34097 hPa North 19.6 km/h 28.5 km/h 0 % 0 mm
03:44 -17.8 °C -15.6 °C 34097 hPa North 9.3 km/h 28.5 km/h 0 % 0 mm
03:49 -17.8 °C -15.6 °C 34097 hPa Calm   28.5 km/h 0 % 0 mm
03:50 -17.8 °C -15.6 °C 34097 hPa North 7.6 km/h 28.5 km/h 0 % 0 mm
03:56 -17.8 °C -15.6 °C 34097 hPa North 8 km/h 19.6 km/h 0 % 0 mm
04:00 -17.8 °C -15.6 °C 34097 hPa NNW 11.1 km/h 22.5 km/h 0 % 0 mm
04:05 -17.8 °C -15.6 °C 34097 hPa North 7.6 km/h 22.5 km/h 0 % 0 mm
04:07 -17.8 °C -15.6 °C 34097 hPa Calm   22.5 km/h 0 % 0 mm
04:12 -17.8 °C -15.6 °C 34097 hPa NNE 8 km/h 14.5 km/h 0 % 0 mm
04:17 -17.8 °C -15.6 °C 34097 hPa NNE 14 km/h 15 km/h 0 % 0 mm
04:18 -17.8 °C -15.6 °C 34097 hPa NNW 4.2 km/h 15 km/h 0 % 0 mm
04:23 -17.8 °C -15.6 °C 34097 hPa North 6.4 km/h 19.6 km/h 0 % 0 mm
04:26 -17.8 °C -15.6 °C 34097 hPa WNW 4.2 km/h 19.6 km/h 0 % 0 mm
04:28 -17.8 °C -15.6 °C 34097 hPa Calm   19.6 km/h 0 % 0 mm
04:33 -17.8 °C -15.6 °C 34097 hPa Calm   12.7 km/h 0 % 0 mm
04:34 -17.8 °C -15.6 °C 34097 hPa NNE 5.1 km/h 12.7 km/h 0 % 0 mm
04:39 -17.8 °C -15.6 °C 34097 hPa Calm   12.7 km/h 0 % 0 mm
04:40 -17.8 °C -15.6 °C 34130.9 hPa Calm   12.7 km/h 0 % 0 mm
04:45 -17.8 °C -15.6 °C 34130.9 hPa West 8 km/h 15.6 km/h 0 % 0 mm
04:46 -17.8 °C -15.6 °C 34130.9 hPa NW 2.3 km/h 15.6 km/h 0 % 0 mm
04:48 -17.8 °C -15.6 °C 34130.9 hPa Calm   15.6 km/h 0 % 0 mm
04:53 -17.8 °C -15.6 °C 34130.9 hPa Calm   19.2 km/h 0 % 0 mm
04:56 -17.8 °C -15.6 °C 34164.7 hPa North 8 km/h 20.9 km/h 0 % 0 mm
05:01 -17.8 °C -15.6 °C 34164.7 hPa NE 2.9 km/h 20.9 km/h 0 % 0 mm
05:04 -17.8 °C -15.6 °C 34164.7 hPa NNW 10.3 km/h 20.9 km/h 0 % 0 mm
05:06 -17.8 °C -15.6 °C 34164.7 hPa Calm   16.9 km/h 0 % 0 mm
05:09 -17.8 °C -15.6 °C 34164.7 hPa West 2.3 km/h 15 km/h 0 % 0 mm
05:14 -17.8 °C -15.6 °C 34164.7 hPa Calm   9.3 km/h 0 % 0 mm
05:15 -17.8 °C -15.6 °C 34164.7 hPa Calm   9.3 km/h 0 % 0 mm
05:19 -17.8 °C -15.6 °C 34164.7 hPa NNW 10.3 km/h 10.3 km/h 0 % 0 mm
05:22 -17.8 °C -15.6 °C 34164.7 hPa NNW 4.2 km/h 10.3 km/h 0 % 0 mm
05:27 -17.8 °C -15.6 °C 34164.7 hPa Calm   11.1 km/h 0 % 0 mm
05:29 -17.8 °C -15.6 °C 34164.7 hPa Calm   12.2 km/h 0 % 0 mm
05:34 -17.8 °C -15.6 °C 34164.7 hPa North 2.3 km/h 12.2 km/h 0 % 0 mm
05:37 -17.8 °C -15.6 °C 34164.7 hPa NNW 5.1 km/h 14.5 km/h 0 % 0 mm
05:42 -17.8 °C -15.6 °C 34164.7 hPa NW 2.3 km/h 16.9 km/h 0 % 0 mm
05:43 -17.8 °C -15.6 °C 34164.7 hPa Calm   16.9 km/h 0 % 0 mm
05:45 -17.8 °C -15.6 °C 34164.7 hPa Calm   16.9 km/h 0 % 0 mm
05:49 -17.8 °C -15.6 °C 34164.7 hPa Calm   15.6 km/h 0 % 0 mm
05:53 -17.8 °C -15.6 °C 34164.7 hPa NW 6.4 km/h 9.3 km/h 0 % 0 mm
05:55 -17.8 °C -15.6 °C 34164.7 hPa Calm   6.4 km/h 0 % 0 mm
06:00 -17.8 °C -15.6 °C 34164.7 hPa Calm   12.2 km/h 0 % 0 mm
06:02 -17.8 °C -15.6 °C 34164.7 hPa NNW 5.6 km/h 12.2 km/h 0 % 0 mm
06:07 -17.8 °C -15.6 °C 34164.7 hPa Calm   12.2 km/h 0 % 0 mm
06:08 -17.8 °C -15.6 °C 34164.7 hPa Calm   12.2 km/h 0 % 0 mm
06:13 -17.8 °C -15.6 °C 34164.7 hPa North 6.4 km/h 19.6 km/h 0 % 0 mm
06:16 -17.8 °C -15.6 °C 34164.7 hPa Calm   19.6 km/h 0 % 0 mm
06:17 -17.8 °C -15.6 °C 34164.7 hPa WNW 4.2 km/h 19.6 km/h 0 % 0 mm
06:22 -17.8 °C -15.6 °C 34164.7 hPa Calm   11.1 km/h 0 % 0 mm
06:24 -17.8 °C -15.6 °C 34164.7 hPa Calm   11.1 km/h 0 % 0 mm
06:29 -17.8 °C -15.6 °C 34164.7 hPa Calm   10.3 km/h 0 % 0 mm
06:31 -17.8 °C -15.6 °C 34164.7 hPa Calm   14.5 km/h 0 % 0 mm
06:36 -17.8 °C -15.6 °C 34164.7 hPa NE 3.4 km/h 14.5 km/h 0 % 0 mm
06:37 -17.8 °C -15.6 °C 34164.7 hPa Calm   14.5 km/h 0 % 0 mm
06:42 -17.8 °C -15.6 °C 34164.7 hPa Calm   12.2 km/h 0 % 0 mm
06:45 -17.8 °C -15.6 °C 34164.7 hPa Calm   5.6 km/h 0 % 0 mm
06:49 -17.8 °C -15.6 °C 34164.7 hPa Calm     0 % 0 mm
06:54 -17.8 °C -15.6 °C 34164.7 hPa Calm     0 % 0 mm
06:59 -17.8 °C -15.6 °C 34198.6 hPa West 10.3 km/h 10.3 km/h 0 % 0 mm
07:01 -17.8 °C -15.6 °C 34198.6 hPa Calm   10.3 km/h 0 % 0 mm
07:04 -17.8 °C -15.6 °C 34198.6 hPa WNW 8.9 km/h 12.7 km/h 0 % 0 mm
07:09 -17.8 °C -15.6 °C 34198.6 hPa SSW 5.1 km/h 12.7 km/h 0 % 0 mm
07:10 -17.8 °C -15.6 °C 34198.6 hPa WNW 2.9 km/h 12.7 km/h 0 % 0 mm
07:14 -17.8 °C -15.6 °C 34198.6 hPa Calm   11.1 km/h 0 % 0 mm
07:18 -17.8 °C -15.6 °C 34198.6 hPa WNW 6.9 km/h 11.1 km/h 0 % 0 mm
07:23 -17.8 °C -15.6 °C 34198.6 hPa NNW 3.4 km/h 9.8 km/h 0 % 0 mm
07:24 -17.8 °C -15.6 °C 34198.6 hPa Calm   9.8 km/h 0 % 0 mm
07:29 -17.8 °C -15.6 °C 34198.6 hPa Calm   8 km/h 0 % 0 mm
07:33 -17.8 °C -15.6 °C 34198.6 hPa South 2.9 km/h 9.3 km/h 0 % 0 mm
07:38 -17.8 °C -15.6 °C 34198.6 hPa Calm   14 km/h 0 % 0 mm
07:42 -17.8 °C -15.6 °C 34235.8 hPa Calm   14 km/h 0 % 0 mm
07:46 -17.8 °C -15.6 °C 34235.8 hPa NW 3.4 km/h 16.3 km/h 0 % 0 mm
07:51 -17.8 °C -15.6 °C 34235.8 hPa Calm   16.3 km/h 0 % 0 mm
07:53 -17.8 °C -15.6 °C 34235.8 hPa WNW 6.9 km/h 16.3 km/h 0 % 0 mm
07:58 -15.3 °C -15.6 °C 34235.8 hPa Calm   20.3 km/h 98 % 0 mm
08:03 -15.3 °C -15.6 °C 34235.8 hPa West 3.4 km/h 19.6 km/h 98 % 0 mm
08:04 -15.3 °C -15.6 °C 34235.8 hPa Calm   19.6 km/h 98 % 0 mm
08:08 -15.3 °C -15.6 °C 34235.8 hPa WNW 5.1 km/h 16.3 km/h 98 % 0 mm
08:11 -15.3 °C -15.6 °C 34198.6 hPa NNW 5.1 km/h 15.6 km/h 98 % 0 mm
08:14 -15.3 °C -15.6 °C 34198.6 hPa Calm   15.6 km/h 98 % 0 mm
08:17 -15.3 °C -15.6 °C 34198.6 hPa Calm   12.7 km/h 98 % 0 mm
08:22 -15.3 °C -15.6 °C 34198.6 hPa Calm   12.7 km/h 98 % 0 mm
08:23 -15.3 °C -15.6 °C 34198.6 hPa Calm   12.7 km/h 98 % 0 mm
08:28 -15.3 °C -15.6 °C 34235.8 hPa West 6.9 km/h 9.3 km/h 98 % 0 mm
08:32 -15.3 °C -15.6 °C 34235.8 hPa West 14 km/h 14 km/h 98 % 0 mm
08:37 -15.3 °C -15.6 °C 34235.8 hPa Calm   16.3 km/h 98 % 0 mm
08:40 -15.3 °C -15.6 °C 34235.8 hPa Calm   16.3 km/h 98 % 0 mm
08:43 -15.3 °C -15.6 °C 34235.8 hPa Calm   14 km/h 98 % 0 mm
08:46 -15.3 °C -15.6 °C 34235.8 hPa North 2.9 km/h 14 km/h 98 % 0 mm
08:51 -15.3 °C -15.6 °C 34235.8 hPa NNW 2.3 km/h 15 km/h 98 % 0 mm
08:52 -15.3 °C -15.6 °C 34235.8 hPa Calm   15 km/h 98 % 0 mm
09:00 -15.3 °C -15.6 °C 34269.7 hPa Calm   20.3 km/h 98 % 0 mm
09:05 -15.4 °C -15.6 °C 34269.7 hPa Calm   9.3 km/h 98 % 0 mm
09:07 -15.4 °C -15.6 °C 34269.7 hPa Calm   9.3 km/h 98 % 0 mm
09:13 -15.4 °C -15.6 °C 34303.6 hPa WNW 6.9 km/h 11.1 km/h 98 % 0 mm
09:18 -15.4 °C -15.6 °C 34303.6 hPa NNW 8 km/h 11.1 km/h 98 % 0 mm
09:19 -15.4 °C -15.6 °C 34303.6 hPa NNE 6.9 km/h 11.1 km/h 98 % 0 mm
09:24 -15.4 °C -15.6 °C 34303.6 hPa Calm   22.5 km/h 98 % 0 mm
09:25 -15.4 °C -15.6 °C 34303.6 hPa West 4.2 km/h 22.5 km/h 98 % 0 mm
09:30 -15.4 °C -15.6 °C 34303.6 hPa East 5.6 km/h 16.3 km/h 98 % 0 mm
09:32 -15.4 °C -15.6 °C 34303.6 hPa West 10.3 km/h 12.2 km/h 98 % 0 mm
09:37 -15.4 °C -15.6 °C 34303.6 hPa NW 2.9 km/h 16.3 km/h 98 % 0 mm
09:42 -15.3 °C -15.6 °C 34303.6 hPa Calm   19.2 km/h 98 % 0 mm
09:43 -15.3 °C -15.6 °C 34303.6 hPa WNW 2.3 km/h 19.2 km/h 98 % 0 mm
09:49 -15.3 °C -15.6 °C 34303.6 hPa NW 6.9 km/h 15.6 km/h 98 % 0 mm
09:53 -15.3 °C -15 °C 34303.6 hPa Calm   15.6 km/h 98 % 0 mm
09:58 -15.2 °C -15 °C 34303.6 hPa Calm   14 km/h 98 % 0 mm
10:03 -15.2 °C -15 °C 34303.6 hPa WSW 5.1 km/h 19.2 km/h 98 % 0 mm
10:05 -15.2 °C -15 °C 34303.6 hPa WNW 11.6 km/h 19.2 km/h 98 % 0 mm
10:06 -15.2 °C -15 °C 34303.6 hPa Calm   19.2 km/h 98 % 0 mm
10:11 -15.3 °C -15 °C 34303.6 hPa Calm   15.6 km/h 98 % 0 mm
10:13 -15.3 °C -15 °C 34303.6 hPa NNW 8.9 km/h 24.3 km/h 98 % 0 mm
10:18 -15.3 °C -15 °C 34303.6 hPa West 9.3 km/h 24.3 km/h 98 % 0 mm
10:19 -15.3 °C -15 °C 34303.6 hPa WSW 15 km/h 24.3 km/h 98 % 0 mm
10:25 -15.2 °C -15 °C 34303.6 hPa NW 16.3 km/h 19.6 km/h 98 % 0 mm
10:26 -15.2 °C -15 °C 34337.4 hPa West 12.7 km/h 19.6 km/h 98 % 0 mm
10:32 -15.2 °C -15 °C 34337.4 hPa West 2.3 km/h 19.6 km/h 98 % 0 mm
10:35 -15.2 °C -15 °C 34337.4 hPa West 11.1 km/h 19.6 km/h 98 % 0 mm
10:40 -15.2 °C -15 °C 34337.4 hPa NW 5.1 km/h 19.2 km/h 98 % 0 mm
10:41 -15.2 °C -15 °C 34337.4 hPa NNW 2.3 km/h 19.2 km/h 98 % 0 mm
10:46 -14.9 °C -15 °C 34337.4 hPa NW 5.1 km/h 24.3 km/h 98 % 0 mm
10:47 -14.9 °C -15 °C 34337.4 hPa Calm   24.3 km/h 98 % 0 mm
10:52 -15 °C -15 °C 34337.4 hPa West 6.4 km/h 24.3 km/h 98 % 0 mm
10:53 -15 °C -15 °C 34337.4 hPa West 14 km/h 24.3 km/h 98 % 0 mm
10:58 -15 °C -15 °C 34337.4 hPa West 2.3 km/h 20.3 km/h 98 % 0 mm
10:59 -15 °C -15 °C 34337.4 hPa NW 8 km/h 16.9 km/h 98 % 0 mm
11:04 -15.1 °C -15 °C 34337.4 hPa WNW 12.7 km/h 19.2 km/h 98 % 0 mm
11:05 -15.1 °C -15 °C 34337.4 hPa West 3.4 km/h 19.2 km/h 98 % 0 mm
11:07 -14.9 °C -15 °C 34337.4 hPa NNW 8 km/h 19.2 km/h 98 % 0 mm
11:11 -14.9 °C -15 °C 34371.3 hPa WNW 16.3 km/h 19.6 km/h 98 % 0 mm
11:13 -14.9 °C -15 °C 34371.3 hPa WNW 11.1 km/h 19.6 km/h 98 % 0 mm
11:18 -14.7 °C -14.4 °C 34371.3 hPa SW 16.3 km/h 19.6 km/h 98 % 0 mm
11:20 -14.7 °C -14.4 °C 34371.3 hPa WSW 8 km/h 19.2 km/h 98 % 0 mm
11:25 -14.7 °C -14.4 °C 34371.3 hPa West 4.2 km/h 20.3 km/h 98 % 0 mm
11:26 -14.7 °C -14.4 °C 34371.3 hPa WNW 4.2 km/h 20.3 km/h 98 % 0 mm
11:31 -14.7 °C -14.4 °C 34371.3 hPa NNW 8.9 km/h 24.3 km/h 98 % 0 mm
11:32 -14.8 °C -14.4 °C 34371.3 hPa NW 10.3 km/h 24.3 km/h 98 % 0 mm
11:35 -14.8 °C -14.4 °C 34371.3 hPa WNW 12.7 km/h 24.3 km/h 98 % 0 mm
11:38 -14.8 °C -14.4 °C 34371.3 hPa West 6.9 km/h 24.3 km/h 98 % 0 mm
11:43 -14.8 °C -14.4 °C 34405.1 hPa WNW 15 km/h 17.9 km/h 98 % 0 mm
11:44 -14.8 °C -14.4 °C 34405.1 hPa NNE 6.9 km/h 16.9 km/h 98 % 0 mm
11:49 -14.8 °C -14.4 °C 34405.1 hPa WNW 5.6 km/h 15.6 km/h 98 % 0 mm
11:53 -14.8 °C -14.4 °C 34405.1 hPa Calm   14.5 km/h 98 % 0 mm
11:58 -14.8 °C -14.4 °C 34371.3 hPa West 6.9 km/h 15 km/h 98 % 0 mm
12:03 -14.9 °C -15 °C 34371.3 hPa WNW 7.6 km/h 15 km/h 98 % 0 mm
12:08 -14.9 °C -15 °C 34371.3 hPa West 5.6 km/h 12.7 km/h 98 % 0 mm
12:09 -14.9 °C -15 °C 34371.3 hPa West 4.2 km/h 12.7 km/h 98 % 0 mm
12:13 -14.9 °C -15 °C 34371.3 hPa West 15 km/h 15 km/h 98 % 0 mm
12:18 -14.9 °C -15 °C 34371.3 hPa NW 14 km/h 20.3 km/h 98 % 0 mm
12:24 -14.9 °C -15 °C 34371.3 hPa North 15 km/h 20.9 km/h 98 % 0 mm
12:25 -14.9 °C -15 °C 34371.3 hPa North 6.4 km/h 20.9 km/h 98 % 0 mm
12:30 -14.8 °C -14.4 °C 34371.3 hPa SSW 9.8 km/h 15.6 km/h 98 % 0 mm
12:31 -14.8 °C -14.4 °C 34371.3 hPa West 5.6 km/h 16.3 km/h 98 % 0 mm
12:36 -14.8 °C -14.4 °C 34371.3 hPa WNW 8 km/h 16.9 km/h 98 % 0 mm
12:38 -14.8 °C -14.4 °C 34371.3 hPa NW 14.5 km/h 16.9 km/h 98 % 0 mm
12:40 -14.8 °C -14.4 °C 34371.3 hPa NNW 11.1 km/h 17.9 km/h 98 % 0 mm
12:44 -14.7 °C -14.4 °C 34371.3 hPa SSW 15 km/h 20.3 km/h 97 % 0 mm
12:49 -14.6 °C -14.4 °C 34371.3 hPa West 14 km/h 22 km/h 97 % 0 mm
12:50 -14.6 °C -14.4 °C 34371.3 hPa North 9.8 km/h 22 km/h 97 % 0 mm
12:55 -14.4 °C -14.4 °C 34371.3 hPa WNW 4.2 km/h 22 km/h 97 % 0 mm
13:00 -14.4 °C -14.4 °C 34371.3 hPa West 14.5 km/h 22.5 km/h 96 % 0 mm
13:02 -14.4 °C -14.4 °C 34371.3 hPa West 4.2 km/h 22.5 km/h 96 % 0 mm
13:06 -14.4 °C -14.4 °C 34371.3 hPa SW 12.7 km/h 22.5 km/h 95 % 0 mm
13:08 -14.4 °C -14.4 °C 34371.3 hPa NW 15 km/h 22.5 km/h 95 % 0 mm
13:13 -14.6 °C -15 °C 34371.3 hPa North 8 km/h 25.4 km/h 94 % 0 mm
13:14 -14.6 °C -15 °C 34371.3 hPa West 16.3 km/h 25.4 km/h 93 % 0 mm
13:16 -14.6 °C -15 °C 34371.3 hPa West 2.3 km/h 25.4 km/h 93 % 0 mm
13:21 -14.6 °C -15 °C 34371.3 hPa SSW 15 km/h 27.7 km/h 92 % 0 mm
13:23 -14.6 °C -15 °C 34371.3 hPa WNW 18.7 km/h 32.3 km/h 92 % 0 mm
13:27 -14.6 °C -15 °C 34371.3 hPa WNW 6.9 km/h 32.3 km/h 92 % 0 mm
13:29 -14.6 °C -15 °C 34371.3 hPa West 16.3 km/h 32.3 km/h 92 % 0 mm
13:34 -14.6 °C -15 °C 34371.3 hPa NNW 16.3 km/h 19.6 km/h 93 % 0 mm
13:37 -14.6 °C -15 °C 34371.3 hPa West 4.2 km/h 16.3 km/h 93 % 0 mm
13:42 -14.6 °C -15 °C 34371.3 hPa WNW 6.9 km/h 16.3 km/h 93 % 0 mm
13:43 -14.6 °C -15 °C 34371.3 hPa West 3.4 km/h 16.3 km/h 93 % 0 mm
13:44 -14.6 °C -15 °C 34371.3 hPa West 9.8 km/h 14.5 km/h 93 % 0 mm
13:49 -14.7 °C -15 °C 34371.3 hPa North 12.7 km/h 19.2 km/h 93 % 0 mm
13:50 -14.7 °C -15 °C 34371.3 hPa NW 12.7 km/h 19.2 km/h 92 % 0 mm
13:51 -14.7 °C -15 °C 34371.3 hPa West 7.6 km/h 19.2 km/h 92 % 0 mm
13:56 -14.7 °C -15 °C 34371.3 hPa NW 9.3 km/h 19.2 km/h 92 % 0 mm
14:01 -14.7 °C -15 °C 34371.3 hPa West 26.7 km/h 27.2 km/h 91 % 0 mm
14:02 -14.7 °C -15 °C 34371.3 hPa West 22 km/h 27.2 km/h 91 % 0 mm
14:04 -14.8 °C -15.6 °C 34371.3 hPa NNW 22.5 km/h 27.2 km/h 90 % 0 mm
14:08 -14.7 °C -15.6 °C 34371.3 hPa West 14 km/h 27.2 km/h 90 % 0 mm
14:10 -14.7 °C -15.6 °C 34371.3 hPa WNW 15.6 km/h 27.2 km/h 90 % 0 mm
14:19 -14.8 °C -15.6 °C 34371.3 hPa NNW 17.9 km/h 20.9 km/h 89 % 0 mm
14:24 -14.7 °C -15.6 °C 34371.3 hPa SSW 19.2 km/h 24.8 km/h 89 % 0 mm
14:26 -14.6 °C -15.6 °C 34371.3 hPa West 7.6 km/h 24.8 km/h 89 % 0 mm
14:28 -14.6 °C -15.6 °C 34371.3 hPa NW 18.7 km/h 24.8 km/h 90 % 0 mm
14:33 -14.7 °C -15.6 °C 34371.3 hPa West 20.3 km/h 27.2 km/h 88 % 0 mm
14:35 -14.7 °C -15.6 °C 34371.3 hPa West 15 km/h 27.2 km/h 88 % 0 mm
14:36 -14.7 °C -15.6 °C 34371.3 hPa SSW 14.5 km/h 27.2 km/h 88 % 0 mm
14:41 -14.7 °C -15.6 °C 34371.3 hPa West 20.9 km/h 27.2 km/h 87 % 0 mm
14:42 -14.8 °C -15.6 °C 34371.3 hPa West 15.6 km/h 27.2 km/h 87 % 0 mm
14:47 -14.8 °C -16.1 °C 34371.3 hPa WNW 12.7 km/h 26.7 km/h 86 % 0 mm
14:48 -14.8 °C -16.1 °C 34371.3 hPa WNW 10.3 km/h 26.7 km/h 86 % 0 mm
14:49 -14.8 °C -16.1 °C 34371.3 hPa West 8 km/h 24.8 km/h 86 % 0 mm
14:54 -14.9 °C -16.1 °C 34371.3 hPa SSW 11.1 km/h 20.3 km/h 87 % 0 mm
14:56 -14.9 °C -16.1 °C 34371.3 hPa WNW 15.6 km/h 20.3 km/h 87 % 0 mm
14:58 -14.9 °C -16.1 °C 34371.3 hPa WNW 8 km/h 20.3 km/h 87 % 0 mm
15:02 -14.9 °C -16.1 °C 34371.3 hPa West 15 km/h 20.9 km/h 87 % 0 mm
15:07 -14.9 °C -16.1 °C 34371.3 hPa West 17.4 km/h 28.5 km/h 88 % 0 mm
15:12 -15 °C -16.1 °C 34405.1 hPa West 12.7 km/h 28.5 km/h 88 % 0 mm
15:15 -15 °C -16.1 °C 34405.1 hPa WNW 15.6 km/h 22 km/h 88 % 0 mm
15:20 -15 °C -15.6 °C 34405.1 hPa West 12.7 km/h 20.3 km/h 89 % 0 mm
15:21 -15 °C -15.6 °C 34405.1 hPa NW 5.1 km/h 20.3 km/h 89 % 0 mm
15:26 -15 °C -15.6 °C 34405.1 hPa WNW 2.9 km/h 19.2 km/h 89 % 0 mm
15:27 -14.9 °C -15.6 °C 34405.1 hPa WNW 12.2 km/h 19.2 km/h 90 % 0 mm
15:32 -14.9 °C -15.6 °C 34405.1 hPa WSW 11.1 km/h 19.2 km/h 89 % 0 mm
15:33 -14.9 °C -15.6 °C 34405.1 hPa West 16.3 km/h 19.2 km/h 89 % 0 mm
15:38 -15 °C -16.1 °C 34405.1 hPa WNW 14.5 km/h 20.9 km/h 88 % 0 mm
15:39 -15 °C -16.1 °C 34405.1 hPa NNW 20.3 km/h 20.9 km/h 88 % 0 mm
15:45 -15.1 °C -16.1 °C 34428.8 hPa West 4.2 km/h 24.8 km/h 88 % 0 mm
15:50 -15.1 °C -16.1 °C 34428.8 hPa WNW 10.3 km/h 24.8 km/h 88 % 0 mm
15:52 -15.2 °C -16.1 °C 34428.8 hPa West 20.3 km/h 20.3 km/h 88 % 0 mm
15:57 -15.2 °C -16.1 °C 34428.8 hPa WNW 10.3 km/h 22.5 km/h 88 % 0 mm
15:59 -15.2 °C -16.1 °C 34428.8 hPa North 12.2 km/h 22.5 km/h 88 % 0 mm
16:00 -15.3 °C -16.1 °C 34428.8 hPa West 8 km/h 22.5 km/h 88 % 0 mm
16:05 -15.3 °C -16.1 °C 34428.8 hPa NW 5.1 km/h 22.5 km/h 88 % 0 mm
16:06 -15.3 °C -16.1 °C 34428.8 hPa West 8.9 km/h 18.7 km/h 88 % 0 mm
16:07 -15.3 °C -16.1 °C 34428.8 hPa West 8.9 km/h 19.6 km/h 88 % 0 mm
16:12 -15.4 °C -16.1 °C 34428.8 hPa NNW 10.3 km/h 19.6 km/h 88 % 0 mm
16:14 -15.4 °C -16.1 °C 34428.8 hPa West 10.3 km/h 19.6 km/h 88 % 0 mm
16:19 -15.4 °C -16.1 °C 34428.8 hPa WSW 15.6 km/h 22 km/h 88 % 0 mm
16:23 -15.5 °C -16.7 °C 34428.8 hPa NNW 14 km/h 22 km/h 88 % 0 mm
16:27 -15.5 °C -16.7 °C 34428.8 hPa NW 17.4 km/h 22.5 km/h 88 % 0 mm
16:32 -15.6 °C -16.1 °C 34428.8 hPa West 12.7 km/h 22.5 km/h 89 % 0 mm
16:33 -15.6 °C -16.1 °C 34428.8 hPa West 16.9 km/h 22.5 km/h 89 % 0 mm
16:35 -15.6 °C -16.1 °C 34428.8 hPa West 15.6 km/h 22.5 km/h 89 % 0 mm
16:40 -15.7 °C -16.7 °C 34428.8 hPa West 12.2 km/h 16.9 km/h 89 % 0 mm
16:41 -15.7 °C -16.7 °C 34405.1 hPa West 3.4 km/h 16.9 km/h 89 % 0 mm
16:46 -15.8 °C -16.7 °C 34405.1 hPa WSW 5.1 km/h 19.2 km/h 89 % 0 mm
16:48 -15.8 °C -16.7 °C 34405.1 hPa West 9.3 km/h 19.2 km/h 89 % 0 mm
16:55 -15.9 °C -16.7 °C 34405.1 hPa West 5.1 km/h 16.9 km/h 89 % 0 mm
17:00 -16.1 °C -16.7 °C 34428.8 hPa WSW 10.3 km/h 16.9 km/h 89 % 0 mm
17:02 -16.1 °C -16.7 °C 34428.8 hPa West 5.1 km/h 16.9 km/h 90 % 0 mm
17:06 -16.2 °C -16.7 °C 34428.8 hPa West 8.9 km/h 15 km/h 90 % 0 mm
17:11 -16.3 °C -17.2 °C 34405.1 hPa West 8.9 km/h 15 km/h 90 % 0 mm
17:15 -16.3 °C -16.7 °C 34405.1 hPa West 8.9 km/h 16.3 km/h 91 % 0 mm
17:16 -16.3 °C -16.7 °C 34405.1 hPa West 9.3 km/h 16.3 km/h 91 % 0 mm
17:21 -16.4 °C -16.7 °C 34405.1 hPa West 7.6 km/h 16.3 km/h 91 % 0 mm
17:23 -16.4 °C -17.2 °C 34405.1 hPa WSW 8 km/h 16.3 km/h 91 % 0 mm
17:26 -16.4 °C -17.2 °C 34428.8 hPa West 5.6 km/h 12.7 km/h 91 % 0 mm
17:29 -16.5 °C -17.2 °C 34428.8 hPa West 7.6 km/h 12.7 km/h 91 % 0 mm
17:34 -16.5 °C -17.2 °C 34428.8 hPa WSW 4.2 km/h 16.3 km/h 92 % 0 mm
17:36 -16.5 °C -17.2 °C 34428.8 hPa Calm   16.3 km/h 92 % 0 mm
17:41 -16.6 °C -17.2 °C 34428.8 hPa WNW 11.1 km/h 12.7 km/h 92 % 0 mm
17:42 -16.6 °C -17.2 °C 34428.8 hPa Calm   12.7 km/h 92 % 0 mm
17:47 -16.7 °C -17.2 °C 34428.8 hPa West 8.9 km/h 11.1 km/h 92 % 0 mm
17:52 -16.8 °C -17.2 °C 34428.8 hPa Calm   9.8 km/h 92 % 0 mm
17:53 -16.8 °C -17.2 °C 34428.8 hPa Calm   9.8 km/h 92 % 0 mm
17:58 -16.8 °C -17.2 °C 34428.8 hPa WSW 10.3 km/h 12.7 km/h 92 % 0 mm
17:59 -16.9 °C -17.2 °C 34428.8 hPa Calm   12.7 km/h 92 % 0 mm
18:04 -17 °C -17.8 °C 34428.8 hPa Calm   12.7 km/h 92 % 0 mm
18:09 -17.1 °C -17.8 °C 34428.8 hPa Calm   8.9 km/h 92 % 0 mm
18:11 -17.2 °C -17.8 °C 34428.8 hPa Calm     92 % 0 mm
18:16 -17.3 °C -17.8 °C 34428.8 hPa Calm     92 % 0 mm
18:18 -17.3 °C -17.8 °C 34428.8 hPa Calm   10.3 km/h 92 % 0 mm
18:24 -17.4 °C -17.8 °C 34428.8 hPa West 9.3 km/h 10.3 km/h 92 % 0 mm
18:26 -17.4 °C -17.8 °C 34428.8 hPa Calm   10.3 km/h 93 % 0 mm
18:31 -17.4 °C -17.8 °C 34428.8 hPa WSW 11.1 km/h 12.2 km/h 94 % 0 mm
18:32 -17.4 °C -17.8 °C 34428.8 hPa West 10.3 km/h 12.2 km/h 94 % 0 mm
18:37 -17.4 °C -17.8 °C 34428.8 hPa Calm   12.2 km/h 94 % 0 mm
18:38 -17.4 °C -17.8 °C 34428.8 hPa Calm   12.2 km/h 94 % 0 mm
18:43 -17.4 °C -17.8 °C 34476.3 hPa Calm   9.3 km/h 95 % 0 mm
18:46 -17.4 °C -17.8 °C 34476.3 hPa Calm   8 km/h 95 % 0 mm
18:51 -17.4 °C -17.8 °C 34476.3 hPa Calm     95 % 0 mm
18:54 -17.4 °C -17.8 °C 34476.3 hPa Calm     95 % 0 mm
18:59 -17.5 °C -17.8 °C 34476.3 hPa Calm     95 % 0 mm
19:01 -17.5 °C -17.8 °C 34476.3 hPa Calm     95 % 0 mm
19:05 -17.5 °C -17.8 °C 34476.3 hPa Calm     95 % 0 mm
19:10 -17.5 °C -17.2 °C 34476.3 hPa Calm     96 % 0 mm
19:12 -17.5 °C -17.2 °C 34476.3 hPa Calm     96 % 0 mm
19:18 -17.5 °C -17.2 °C 34476.3 hPa Calm     96 % 0 mm
19:22 -17.4 °C -17.2 °C 34476.3 hPa West 9.8 km/h 14 km/h 97 % 0 mm
19:27 -17.4 °C -17.2 °C 34476.3 hPa Calm   14 km/h 97 % 0 mm
19:32 -17.5 °C -17.2 °C 34476.3 hPa Calm   12.7 km/h 97 % 0 mm
19:37 -17.6 °C -17.8 °C 34476.3 hPa Calm   10.3 km/h 97 % 0 mm
19:40 -17.6 °C -17.8 °C 34476.3 hPa West 10.3 km/h 10.3 km/h 97 % 0 mm
19:43 -17.6 °C -17.8 °C 34476.3 hPa Calm   10.3 km/h 97 % 0 mm
19:45 -17.6 °C -17.8 °C 34476.3 hPa Calm   10.3 km/h 97 % 0 mm
19:49 -17.6 °C -17.8 °C 34476.3 hPa West 6.9 km/h 10.3 km/h 97 % 0 mm
19:52 -17.6 °C -17.8 °C 34476.3 hPa West 4.2 km/h 14 km/h 97 % 0 mm
19:57 -17.6 °C -17.8 °C 34476.3 hPa WSW 9.3 km/h 14 km/h 97 % 0 mm
20:03 -17.5 °C -17.2 °C 34476.3 hPa WSW 11.1 km/h 14 km/h 97 % 0 mm
20:04 -17.5 °C -17.2 °C 34476.3 hPa West 5.6 km/h 14 km/h 97 % 0 mm
20:09 -17.6 °C -17.8 °C 34476.3 hPa West 9.3 km/h 11.1 km/h 97 % 0 mm
20:13 -17.6 °C -17.2 °C 34476.3 hPa Calm   11.1 km/h 98 % 0 mm
20:18 -17.6 °C -17.2 °C 34476.3 hPa Calm   10.3 km/h 98 % 0 mm
20:22 -17.6 °C -17.2 °C 34476.3 hPa West 9.3 km/h 12.7 km/h 98 % 0 mm
20:23 -17.6 °C -17.2 °C 34476.3 hPa West 7.6 km/h 12.7 km/h 98 % 0 mm
20:28 -17.6 °C -17.2 °C 34496.6 hPa West 7.6 km/h 12.7 km/h 98 % 0 mm
20:29 -17.6 °C -17.2 °C 34496.6 hPa WSW 10.3 km/h 12.7 km/h 98 % 0 mm
20:34 -17.6 °C -17.8 °C 34496.6 hPa Calm   11.1 km/h 97 % 0 mm
20:35 -17.7 °C -17.8 °C 34496.6 hPa Calm   11.1 km/h 97 % 0 mm
20:39 -17.7 °C -17.8 °C 34496.6 hPa Calm   10.3 km/h 97 % 0 mm
20:41 -17.7 °C -17.8 °C 34496.6 hPa Calm   12.2 km/h 97 % 0 mm
20:46 -17.7 °C -17.8 °C 34496.6 hPa Calm   12.2 km/h 97 % 0 mm
20:51 -17.7 °C -17.8 °C 34496.6 hPa West 6.4 km/h 11.1 km/h 98 % 0 mm
20:52 -17.7 °C -17.8 °C 34496.6 hPa Calm   11.1 km/h 98 % 0 mm
20:53 -17.7 °C -17.8 °C 34496.6 hPa Calm   11.1 km/h 98 % 0 mm
20:58 -17.7 °C -17.8 °C 34496.6 hPa Calm   11.1 km/h 98 % 0 mm
21:02 -17.7 °C -17.8 °C 34496.6 hPa WSW 3.4 km/h 10.3 km/h 98 % 0 mm
21:07 -17.7 °C -17.8 °C 34496.6 hPa Calm   10.3 km/h 98 % 0 mm
21:09 -17.7 °C -17.8 °C 34496.6 hPa WSW 8.9 km/h 10.3 km/h 98 % 0 mm
21:14 -17.7 °C -17.8 °C 34496.6 hPa Calm   11.1 km/h 98 % 0 mm
21:18 -17.6 °C -17.2 °C 34496.6 hPa WSW 9.3 km/h 11.1 km/h 98 % 0 mm
21:21 -17.6 °C -17.2 °C 34496.6 hPa WSW 10.3 km/h 10.3 km/h 98 % 0 mm
21:24 -17.6 °C -17.2 °C 34496.6 hPa Calm   10.3 km/h 98 % 0 mm
21:28 -17.6 °C -17.2 °C 34496.6 hPa Calm   10.3 km/h 98 % 0 mm
21:33 -17.7 °C -17.8 °C 34496.6 hPa Calm   10.3 km/h 98 % 0 mm
21:38 -17.6 °C -17.2 °C 34496.6 hPa WSW 9.3 km/h 10.3 km/h 98 % 0 mm
21:42 -17.6 °C -17.2 °C 34496.6 hPa Calm   10.3 km/h 98 % 0 mm
21:47 -17.6 °C -17.2 °C 34496.6 hPa West 11.1 km/h 11.1 km/h 98 % 0 mm
21:52 -17.6 °C -17.2 °C 34496.6 hPa West 9.8 km/h 14 km/h 98 % 0 mm
21:57 -17.6 °C -17.2 °C 34496.6 hPa Calm   14 km/h 98 % 0 mm
22:04 -17.5 °C -17.2 °C 34496.6 hPa West 6.9 km/h 11.1 km/h 98 % 0 mm
22:09 -17.5 °C -17.2 °C 34496.6 hPa Calm   11.1 km/h 98 % 0 mm
22:13 -17.5 °C -17.2 °C 34496.6 hPa West 10.3 km/h 11.1 km/h 98 % 0 mm
22:14 -17.4 °C -17.2 °C 34496.6 hPa West 9.3 km/h 11.1 km/h 98 % 0 mm
22:18 -17.4 °C -17.2 °C 34496.6 hPa West 9.8 km/h 12.7 km/h 98 % 0 mm
22:20 -17.4 °C -17.2 °C 34496.6 hPa WSW 10.3 km/h 12.7 km/h 98 % 0 mm
22:23 -17.4 °C -17.2 °C 34496.6 hPa Calm   12.7 km/h 98 % 0 mm
22:24 -17.4 °C -17.2 °C 34496.6 hPa Calm   12.7 km/h 98 % 0 mm
22:29 -17.4 °C -17.2 °C 34496.6 hPa Calm   12.2 km/h 98 % 0 mm
22:31 -17.4 °C -17.2 °C 34496.6 hPa Calm   9.8 km/h 98 % 0 mm
22:36 -17.4 °C -17.2 °C 34496.6 hPa Calm   9.8 km/h 98 % 0 mm
22:39 -17.4 °C -17.2 °C 34496.6 hPa Calm     98 % 0 mm
22:44 -17.5 °C -17.2 °C 34496.6 hPa Calm     98 % 0 mm
22:45 -17.5 °C -17.2 °C 34496.6 hPa Calm     98 % 0 mm
22:50 -17.6 °C -17.2 °C 34496.6 hPa Calm     98 % 0 mm
22:55 -17.6 °C -17.2 °C 34496.6 hPa Calm     98 % 0 mm
22:57 -17.6 °C -17.2 °C 34496.6 hPa Calm     98 % 0 mm
23:01 -17.6 °C -17.2 °C 34496.6 hPa West 8 km/h 9.8 km/h 98 % 0 mm
23:06 -17.5 °C -17.2 °C 34496.6 hPa Calm   9.8 km/h 98 % 0 mm
23:07 -17.5 °C -17.2 °C 34496.6 hPa Calm   9.8 km/h 98 % 0 mm
23:08 -17.5 °C -17.2 °C 34496.6 hPa Calm   9.8 km/h 98 % 0 mm
23:13 -17.5 °C -17.2 °C 34496.6 hPa Calm   8 km/h 98 % 0 mm
23:18 -17.4 °C -17.2 °C 34496.6 hPa Calm   9.8 km/h 98 % 0 mm
23:19 -17.4 °C -17.2 °C 34496.6 hPa Calm   9.8 km/h 98 % 0 mm
23:20 -17.4 °C -17.2 °C 34496.6 hPa Calm   9.8 km/h 98 % 0 mm
23:25 -17.4 °C -17.2 °C 34496.6 hPa Calm     98 % 0 mm
23:26 -17.4 °C -17.2 °C 34496.6 hPa Calm     98 % 0 mm
23:31 -17.4 °C -17.2 °C 34496.6 hPa Calm     98 % 0 mm
23:33 -17.4 °C -17.2 °C 34496.6 hPa Calm     98 % 0 mm
23:38 -17.4 °C -17.2 °C 34496.6 hPa Calm     98 % 0 mm
23:39 -17.5 °C -17.2 °C 34496.6 hPa Calm     98 % 0 mm
23:44 -17.6 °C -17.2 °C 34496.6 hPa Calm     98 % 0 mm
23:45 -17.6 °C -17.2 °C 34496.6 hPa Calm     98 % 0 mm
23:47 -17.6 °C -17.2 °C 34496.6 hPa Calm     98 % 0 mm
23:52 -17.6 °C -17.2 °C 34496.6 hPa Calm   8.9 km/h 98 % 0 mm
23:53 -17.6 °C -17.2 °C 34496.6 hPa Calm   8.9 km/h 98 % 0 mm
23:54 -17.6 °C -17.2 °C 34496.6 hPa Calm   8.9 km/h 98 % 0 mm
23:59 -17.6 °C -17.2 °C 34533.8 hPa Calm   8.9 km/h 98 % 0 mm
Le Gheer Warneton
Courtoisie de Weather Underground - 3 mb

Mise a jour : 24/02/2018 15:18:11
Généré par Cumulus 1.9.4 (1099)